date,time,SUV Intensity [MED/Hr],UV Index,Daily total [MED],Since Last [MED]
15/09/2022,00:00:39,0.000,0.0,0.0,0.0
15/09/2022,00:01:39,0.000,0.0,0.0,0.0
15/09/2022,00:03:00,0.000,0.0,0.0,0.0
15/09/2022,00:04:39,0.000,0.0,0.0,0.0
15/09/2022,00:05:39,0.000,0.0,0.0,0.0
15/09/2022,00:06:39,0.000,0.0,0.0,0.0
15/09/2022,00:07:38,-0.001,0.0,0.0,0.0
15/09/2022,00:08:38,0.001,0.0,0.0,0.0
15/09/2022,00:09:39,-0.000,0.0,0.0,0.0
15/09/2022,00:10:38,0.000,0.0,0.0,0.0
15/09/2022,00:11:38,-0.001,0.0,0.0,0.0
15/09/2022,00:12:39,0.000,0.0,0.0,0.0
15/09/2022,00:13:38,0.001,0.0,0.0,0.0
15/09/2022,00:14:39,0.001,0.0,0.0,0.0
15/09/2022,00:15:38,0.001,0.0,0.0,0.0
15/09/2022,00:16:39,-0.001,0.0,0.0,0.0
15/09/2022,00:17:39,0.000,0.0,0.0,0.0
15/09/2022,00:18:38,-0.000,0.0,0.0,0.0
15/09/2022,00:19:39,0.000,0.0,0.0,0.0
15/09/2022,00:20:39,0.000,0.0,0.0,0.0
15/09/2022,00:21:39,0.000,0.0,0.0,0.0
15/09/2022,00:22:42,-0.000,0.0,0.0,0.0
15/09/2022,00:23:41,0.001,0.0,0.0,0.0
15/09/2022,00:24:39,0.001,0.0,0.0,0.0
15/09/2022,00:25:39,-0.000,0.0,0.0,0.0
15/09/2022,00:26:39,0.001,0.0,0.0,0.0
15/09/2022,00:27:39,-0.000,0.0,0.0,0.0
15/09/2022,00:28:39,0.000,0.0,0.0,0.0
15/09/2022,00:29:32,0.000,0.0,0.0,0.0
15/09/2022,00:30:40,-0.001,0.0,0.0,0.0
15/09/2022,00:31:39,0.000,0.0,0.0,0.0
15/09/2022,00:32:39,-0.001,0.0,0.0,0.0
15/09/2022,00:33:39,0.000,0.0,0.0,0.0
15/09/2022,00:34:39,-0.000,0.0,0.0,0.0
15/09/2022,00:35:39,0.001,0.0,0.0,0.0
15/09/2022,00:36:39,-0.000,0.0,0.0,0.0
15/09/2022,00:37:39,0.000,0.0,0.0,0.0
15/09/2022,00:38:38,-0.000,0.0,0.0,0.0
15/09/2022,00:39:39,-0.001,0.0,0.0,0.0
15/09/2022,00:40:48,-0.000,0.0,0.0,0.0
15/09/2022,00:41:39,-0.000,0.0,0.0,0.0
15/09/2022,00:42:39,-0.000,0.0,0.0,0.0
15/09/2022,00:43:47,0.000,0.0,0.0,0.0
15/09/2022,00:44:39,0.001,0.0,0.0,0.0
15/09/2022,00:45:39,-0.000,0.0,0.0,0.0
15/09/2022,00:46:39,-0.000,0.0,0.0,0.0
15/09/2022,00:47:39,-0.001,0.0,0.0,0.0
15/09/2022,00:48:39,0.000,0.0,0.0,0.0
15/09/2022,00:49:39,0.000,0.0,0.0,0.0
15/09/2022,00:50:39,0.001,0.0,0.0,0.0
15/09/2022,00:51:39,0.000,0.0,0.0,0.0
15/09/2022,00:52:39,-0.000,0.0,0.0,0.0
15/09/2022,00:53:39,-0.001,0.0,0.0,0.0
15/09/2022,00:54:39,-0.000,0.0,0.0,0.0
15/09/2022,00:55:39,0.000,0.0,0.0,0.0
15/09/2022,00:56:39,-0.000,0.0,0.0,0.0
15/09/2022,00:57:39,0.000,0.0,0.0,0.0
15/09/2022,00:58:48,-0.000,0.0,0.0,0.0
15/09/2022,00:59:39,-0.000,0.0,0.0,0.0
15/09/2022,01:00:39,-0.000,0.0,0.0,0.0
15/09/2022,01:01:39,-0.000,0.0,0.0,0.0
15/09/2022,01:02:39,0.000,0.0,0.0,0.0
15/09/2022,01:03:39,0.000,0.0,0.0,0.0
15/09/2022,01:04:39,-0.000,0.0,0.0,0.0
15/09/2022,01:05:39,-0.000,0.0,0.0,0.0
15/09/2022,01:06:39,0.000,0.0,0.0,0.0
15/09/2022,01:07:39,0.000,0.0,0.0,0.0
15/09/2022,01:08:39,0.000,0.0,0.0,0.0
15/09/2022,01:09:47,-0.001,0.0,0.0,0.0
15/09/2022,01:10:39,-0.000,0.0,0.0,0.0
15/09/2022,01:11:39,0.001,0.0,0.0,0.0
15/09/2022,01:12:39,0.001,0.0,0.0,0.0
15/09/2022,01:13:39,-0.001,0.0,0.0,0.0
15/09/2022,01:14:39,-0.001,0.0,0.0,0.0
15/09/2022,01:15:47,-0.001,0.0,0.0,0.0
15/09/2022,01:16:39,-0.000,0.0,0.0,0.0
15/09/2022,01:17:38,-0.001,0.0,0.0,0.0
15/09/2022,01:18:39,-0.000,0.0,0.0,0.0
15/09/2022,01:19:39,-0.001,0.0,0.0,0.0
15/09/2022,01:20:39,-0.000,0.0,0.0,0.0
15/09/2022,01:21:39,-0.001,0.0,0.0,0.0
15/09/2022,01:22:39,0.000,0.0,0.0,0.0
15/09/2022,01:23:39,-0.001,0.0,0.0,0.0
15/09/2022,01:24:39,-0.000,0.0,0.0,0.0
15/09/2022,01:25:39,0.001,0.0,0.0,0.0
15/09/2022,01:26:39,-0.001,0.0,0.0,0.0
15/09/2022,01:27:47,-0.000,0.0,0.0,0.0
15/09/2022,01:28:39,-0.000,0.0,0.0,0.0
15/09/2022,01:29:47,-0.000,0.0,0.0,0.0
15/09/2022,01:30:47,0.001,0.0,0.0,0.0
15/09/2022,01:31:39,0.000,0.0,0.0,0.0
15/09/2022,01:32:39,-0.001,0.0,0.0,0.0
15/09/2022,01:33:38,-0.001,0.0,0.0,0.0
15/09/2022,01:34:39,-0.000,0.0,0.0,0.0
15/09/2022,01:35:39,0.001,0.0,0.0,0.0
15/09/2022,01:36:39,-0.000,0.0,0.0,0.0
15/09/2022,01:37:46,-0.001,0.0,0.0,0.0
15/09/2022,01:38:39,0.001,0.0,0.0,0.0
15/09/2022,01:39:39,-0.000,0.0,0.0,0.0
15/09/2022,01:40:39,-0.000,0.0,0.0,0.0
15/09/2022,01:41:39,-0.001,0.0,0.0,0.0
15/09/2022,01:42:39,0.000,0.0,0.0,0.0
15/09/2022,01:43:39,-0.000,0.0,0.0,0.0
15/09/2022,01:44:39,0.000,0.0,0.0,0.0
15/09/2022,01:45:47,-0.001,0.0,0.0,0.0
15/09/2022,01:46:39,-0.000,0.0,0.0,0.0
15/09/2022,01:47:39,0.000,0.0,0.0,0.0
15/09/2022,01:48:39,-0.000,0.0,0.0,0.0
15/09/2022,01:49:39,-0.001,0.0,0.0,0.0
15/09/2022,01:50:39,0.001,0.0,0.0,0.0
15/09/2022,01:51:39,-0.000,0.0,0.0,0.0
15/09/2022,01:52:39,-0.001,0.0,0.0,0.0
15/09/2022,01:53:39,0.001,0.0,0.0,0.0
15/09/2022,01:54:39,0.001,0.0,0.0,0.0
15/09/2022,01:55:39,0.000,0.0,0.0,0.0
15/09/2022,01:56:39,-0.000,0.0,0.0,0.0
15/09/2022,01:57:47,0.000,0.0,0.0,0.0
15/09/2022,01:58:38,0.000,0.0,0.0,0.0
15/09/2022,01:59:39,-0.000,0.0,0.0,0.0
15/09/2022,02:00:39,0.000,0.0,0.0,0.0
15/09/2022,02:01:39,-0.001,0.0,0.0,0.0
15/09/2022,02:02:39,-0.000,0.0,0.0,0.0
15/09/2022,02:03:47,-0.000,0.0,0.0,0.0
15/09/2022,02:04:39,0.000,0.0,0.0,0.0
15/09/2022,02:05:47,0.001,0.0,0.0,0.0
15/09/2022,02:06:39,-0.001,0.0,0.0,0.0
15/09/2022,02:07:39,-0.001,0.0,0.0,0.0
15/09/2022,02:08:39,0.000,0.0,0.0,0.0
15/09/2022,02:09:39,0.001,0.0,0.0,0.0
15/09/2022,02:10:39,0.000,0.0,0.0,0.0
15/09/2022,02:11:48,-0.001,0.0,0.0,0.0
15/09/2022,02:12:39,-0.000,0.0,0.0,0.0
15/09/2022,02:13:39,0.000,0.0,0.0,0.0
15/09/2022,02:14:39,-0.000,0.0,0.0,0.0
15/09/2022,02:15:39,0.000,0.0,0.0,0.0
15/09/2022,02:16:39,-0.001,0.0,0.0,0.0
15/09/2022,02:17:39,0.000,0.0,0.0,0.0
15/09/2022,02:18:39,0.000,0.0,0.0,0.0
15/09/2022,02:19:39,-0.000,0.0,0.0,0.0
15/09/2022,02:20:39,-0.001,0.0,0.0,0.0
15/09/2022,02:21:39,0.000,0.0,0.0,0.0
15/09/2022,02:22:39,0.000,0.0,0.0,0.0
15/09/2022,02:23:39,0.000,0.0,0.0,0.0
15/09/2022,02:24:39,-0.000,0.0,0.0,0.0
15/09/2022,02:25:39,0.001,0.0,0.0,0.0
15/09/2022,02:26:47,0.001,0.0,0.0,0.0
15/09/2022,02:27:39,-0.000,0.0,0.0,0.0
15/09/2022,02:28:39,-0.000,0.0,0.0,0.0
15/09/2022,02:29:40,0.001,0.0,0.0,0.0
15/09/2022,02:30:39,-0.000,0.0,0.0,0.0
15/09/2022,02:31:39,0.001,0.0,0.0,0.0
15/09/2022,02:32:39,0.000,0.0,0.0,0.0
15/09/2022,02:33:39,-0.000,0.0,0.0,0.0
15/09/2022,02:34:39,0.001,0.0,0.0,0.0
15/09/2022,02:35:40,-0.000,0.0,0.0,0.0
15/09/2022,02:36:40,-0.000,0.0,0.0,0.0
15/09/2022,02:37:39,-0.001,0.0,0.0,0.0
15/09/2022,02:38:47,0.000,0.0,0.0,0.0
15/09/2022,02:39:39,0.000,0.0,0.0,0.0
15/09/2022,02:40:39,-0.000,0.0,0.0,0.0
15/09/2022,02:41:47,0.000,0.0,0.0,0.0
15/09/2022,02:42:39,0.000,0.0,0.0,0.0
15/09/2022,02:43:39,0.000,0.0,0.0,0.0
15/09/2022,02:44:48,0.000,0.0,0.0,0.0
15/09/2022,02:45:47,-0.001,0.0,0.0,0.0
15/09/2022,02:46:39,0.000,0.0,0.0,0.0
15/09/2022,02:47:39,0.000,0.0,0.0,0.0
15/09/2022,02:48:39,-0.000,0.0,0.0,0.0
15/09/2022,02:49:39,-0.001,0.0,0.0,0.0
15/09/2022,02:50:52,0.000,0.0,0.0,0.0
15/09/2022,02:52:40,0.000,0.0,0.0,0.0
15/09/2022,02:53:40,0.000,0.0,0.0,0.0
15/09/2022,02:54:39,-0.001,0.0,0.0,0.0
15/09/2022,02:55:39,0.000,0.0,0.0,0.0
15/09/2022,02:56:47,0.000,0.0,0.0,0.0
15/09/2022,02:57:41,0.000,0.0,0.0,0.0
15/09/2022,02:58:39,0.000,0.0,0.0,0.0
15/09/2022,02:59:39,0.000,0.0,0.0,0.0
15/09/2022,03:00:39,0.000,0.0,0.0,0.0
15/09/2022,03:01:39,0.000,0.0,0.0,0.0
15/09/2022,03:02:39,0.001,0.0,0.0,0.0
15/09/2022,03:03:39,0.000,0.0,0.0,0.0
15/09/2022,03:04:39,0.000,0.0,0.0,0.0
15/09/2022,03:05:39,0.000,0.0,0.0,0.0
15/09/2022,03:06:40,-0.001,0.0,0.0,0.0
15/09/2022,03:07:47,0.001,0.0,0.0,0.0
15/09/2022,03:08:39,0.000,0.0,0.0,0.0
15/09/2022,03:09:39,0.000,0.0,0.0,0.0
15/09/2022,03:10:39,0.000,0.0,0.0,0.0
15/09/2022,03:11:39,0.000,0.0,0.0,0.0
15/09/2022,03:12:39,0.001,0.0,0.0,0.0
15/09/2022,03:13:39,-0.001,0.0,0.0,0.0
15/09/2022,03:14:39,0.000,0.0,0.0,0.0
15/09/2022,03:15:39,0.000,0.0,0.0,0.0
15/09/2022,03:16:39,-0.000,0.0,0.0,0.0
15/09/2022,03:17:39,-0.000,0.0,0.0,0.0
15/09/2022,03:18:39,-0.001,0.0,0.0,0.0
15/09/2022,03:19:47,-0.000,0.0,0.0,0.0
15/09/2022,03:20:39,0.000,0.0,0.0,0.0
15/09/2022,03:21:39,0.001,0.0,0.0,0.0
15/09/2022,03:22:40,0.001,0.0,0.0,0.0
15/09/2022,03:23:39,0.000,0.0,0.0,0.0
15/09/2022,03:24:39,-0.001,0.0,0.0,0.0
15/09/2022,03:25:39,0.000,0.0,0.0,0.0
15/09/2022,03:26:39,0.000,0.0,0.0,0.0
15/09/2022,03:27:39,0.000,0.0,0.0,0.0
15/09/2022,03:28:39,-0.001,0.0,0.0,0.0
15/09/2022,03:29:39,0.000,0.0,0.0,0.0
15/09/2022,03:30:39,-0.000,0.0,0.0,0.0
15/09/2022,03:32:05,-0.000,0.0,0.0,0.0
15/09/2022,03:33:40,0.001,0.0,0.0,0.0
15/09/2022,03:34:39,0.000,0.0,0.0,0.0
15/09/2022,03:35:40,-0.000,0.0,0.0,0.0
15/09/2022,03:36:39,0.000,0.0,0.0,0.0
15/09/2022,03:37:48,-0.001,0.0,0.0,0.0
15/09/2022,03:38:39,0.000,0.0,0.0,0.0
15/09/2022,03:39:39,-0.001,0.0,0.0,0.0
15/09/2022,03:40:30,-0.000,0.0,0.0,0.0
15/09/2022,03:41:40,0.000,0.0,0.0,0.0
15/09/2022,03:42:39,0.001,0.0,0.0,0.0
15/09/2022,03:43:39,0.000,0.0,0.0,0.0
15/09/2022,03:44:39,0.000,0.0,0.0,0.0
15/09/2022,03:45:39,-0.000,0.0,0.0,0.0
15/09/2022,03:46:39,0.000,0.0,0.0,0.0
15/09/2022,03:47:39,-0.000,0.0,0.0,0.0
15/09/2022,03:48:39,0.001,0.0,0.0,0.0
15/09/2022,03:49:39,-0.000,0.0,0.0,0.0
15/09/2022,03:50:39,-0.000,0.0,0.0,0.0
15/09/2022,03:51:40,-0.001,0.0,0.0,0.0
15/09/2022,03:52:47,-0.000,0.0,0.0,0.0
15/09/2022,03:53:40,0.000,0.0,0.0,0.0
15/09/2022,03:54:40,0.000,0.0,0.0,0.0
15/09/2022,03:55:39,-0.000,0.0,0.0,0.0
15/09/2022,03:56:39,-0.001,0.0,0.0,0.0
15/09/2022,03:57:40,-0.001,0.0,0.0,0.0
15/09/2022,03:58:39,0.000,0.0,0.0,0.0
15/09/2022,03:59:39,0.000,0.0,0.0,0.0
15/09/2022,04:00:39,-0.001,0.0,0.0,0.0
15/09/2022,04:01:39,0.000,0.0,0.0,0.0
15/09/2022,04:02:39,0.000,0.0,0.0,0.0
15/09/2022,04:03:39,0.000,0.0,0.0,0.0
15/09/2022,04:04:39,-0.000,0.0,0.0,0.0
15/09/2022,04:05:39,0.000,0.0,0.0,0.0
15/09/2022,04:06:40,-0.000,0.0,0.0,0.0
15/09/2022,04:07:39,-0.000,0.0,0.0,0.0
15/09/2022,04:08:39,0.000,0.0,0.0,0.0
15/09/2022,04:09:39,0.001,0.0,0.0,0.0
15/09/2022,04:10:47,-0.001,0.0,0.0,0.0
15/09/2022,04:11:39,-0.000,0.0,0.0,0.0
15/09/2022,04:12:39,0.000,0.0,0.0,0.0
15/09/2022,04:13:48,-0.000,0.0,0.0,0.0
15/09/2022,04:14:39,0.001,0.0,0.0,0.0
15/09/2022,04:15:39,-0.000,0.0,0.0,0.0
15/09/2022,04:16:48,-0.001,0.0,0.0,0.0
15/09/2022,04:17:39,-0.001,0.0,0.0,0.0
15/09/2022,04:18:39,0.001,0.0,0.0,0.0
15/09/2022,04:19:47,0.000,0.0,0.0,0.0
15/09/2022,04:20:39,0.000,0.0,0.0,0.0
15/09/2022,04:21:39,0.000,0.0,0.0,0.0
15/09/2022,04:22:39,-0.000,0.0,0.0,0.0
15/09/2022,04:23:39,0.000,0.0,0.0,0.0
15/09/2022,04:24:39,-0.000,0.0,0.0,0.0
15/09/2022,04:25:39,0.001,0.0,0.0,0.0
15/09/2022,04:26:40,0.000,0.0,0.0,0.0
15/09/2022,04:27:39,0.000,0.0,0.0,0.0
15/09/2022,04:28:39,0.001,0.0,0.0,0.0
15/09/2022,04:29:39,0.000,0.0,0.0,0.0
15/09/2022,04:30:39,0.000,0.0,0.0,0.0
15/09/2022,04:31:40,-0.001,0.0,0.0,0.0
15/09/2022,04:32:39,-0.000,0.0,0.0,0.0
15/09/2022,04:33:39,-0.000,0.0,0.0,0.0
15/09/2022,04:34:48,0.001,0.0,0.0,0.0
15/09/2022,04:35:39,0.000,0.0,0.0,0.0
15/09/2022,04:36:39,0.000,0.0,0.0,0.0
15/09/2022,04:37:40,-0.000,0.0,0.0,0.0
15/09/2022,04:38:39,-0.000,0.0,0.0,0.0
15/09/2022,04:39:40,-0.000,0.0,0.0,0.0
15/09/2022,04:40:39,-0.000,0.0,0.0,0.0
15/09/2022,04:41:40,0.000,0.0,0.0,0.0
15/09/2022,04:42:39,-0.000,0.0,0.0,0.0
15/09/2022,04:43:39,0.000,0.0,0.0,0.0
15/09/2022,04:44:39,0.000,0.0,0.0,0.0
15/09/2022,04:45:39,0.000,0.0,0.0,0.0
15/09/2022,04:46:40,-0.001,0.0,0.0,0.0
15/09/2022,04:47:39,-0.000,0.0,0.0,0.0
15/09/2022,04:48:39,0.001,0.0,0.0,0.0
15/09/2022,04:49:47,0.000,0.0,0.0,0.0
15/09/2022,04:50:39,-0.001,0.0,0.0,0.0
15/09/2022,04:51:39,-0.000,0.0,0.0,0.0
15/09/2022,04:52:39,0.001,0.0,0.0,0.0
15/09/2022,04:53:40,-0.000,0.0,0.0,0.0
15/09/2022,04:54:39,0.000,0.0,0.0,0.0
15/09/2022,04:55:40,0.000,0.0,0.0,0.0
15/09/2022,04:56:39,-0.000,0.0,0.0,0.0
15/09/2022,04:57:48,-0.000,0.0,0.0,0.0
15/09/2022,04:58:39,-0.000,0.0,0.0,0.0
15/09/2022,04:59:40,0.000,0.0,0.0,0.0
15/09/2022,05:00:39,0.001,0.0,0.0,0.0
15/09/2022,05:01:39,-0.000,0.0,0.0,0.0
15/09/2022,05:02:40,-0.001,0.0,0.0,0.0
15/09/2022,05:03:39,-0.000,0.0,0.0,0.0
15/09/2022,05:04:48,0.000,0.0,0.0,0.0
15/09/2022,05:05:39,-0.000,0.0,0.0,0.0
15/09/2022,05:06:39,-0.000,0.0,0.0,0.0
15/09/2022,05:07:48,-0.000,0.0,0.0,0.0
15/09/2022,05:08:38,-0.001,0.0,0.0,0.0
15/09/2022,05:09:39,-0.000,0.0,0.0,0.0
15/09/2022,05:10:48,-0.000,0.0,0.0,0.0
15/09/2022,05:11:38,0.001,0.0,0.0,0.0
15/09/2022,05:12:39,0.000,0.0,0.0,0.0
15/09/2022,05:13:40,0.001,0.0,0.0,0.0
15/09/2022,05:14:39,-0.000,0.0,0.0,0.0
15/09/2022,05:15:39,-0.000,0.0,0.0,0.0
15/09/2022,05:16:40,0.000,0.0,0.0,0.0
15/09/2022,05:17:39,-0.000,0.0,0.0,0.0
15/09/2022,05:18:40,0.000,0.0,0.0,0.0
15/09/2022,05:19:39,-0.001,0.0,0.0,0.0
15/09/2022,05:20:40,-0.000,0.0,0.0,0.0
15/09/2022,05:21:39,0.000,0.0,0.0,0.0
15/09/2022,05:22:39,-0.001,0.0,0.0,0.0
15/09/2022,05:23:40,0.000,0.0,0.0,0.0
15/09/2022,05:24:39,-0.001,0.0,0.0,0.0
15/09/2022,05:25:47,0.000,0.0,0.0,0.0
15/09/2022,05:26:41,0.000,0.0,0.0,0.0
15/09/2022,05:27:39,0.000,0.0,0.0,0.0
15/09/2022,05:28:39,0.000,0.0,0.0,0.0
15/09/2022,05:29:39,0.000,0.0,0.0,0.0
15/09/2022,05:30:39,0.000,0.0,0.0,0.0
15/09/2022,05:31:39,0.000,0.0,0.0,0.0
15/09/2022,05:32:40,0.000,0.0,0.0,0.0
15/09/2022,05:33:39,0.000,0.0,0.0,0.0
15/09/2022,05:34:39,0.001,0.0,0.0,0.0
15/09/2022,05:35:39,0.001,0.0,0.0,0.0
15/09/2022,05:36:56,0.001,0.0,0.0,0.0
15/09/2022,05:38:40,0.001,0.0,0.0,0.0
15/09/2022,05:39:40,0.002,0.0,0.0,0.0
15/09/2022,05:40:40,0.001,0.0,0.0,0.0
15/09/2022,05:41:39,0.001,0.0,0.0,0.0
15/09/2022,05:42:39,0.001,0.0,0.0,0.0
15/09/2022,05:43:47,0.001,0.0,0.0,0.0
15/09/2022,05:44:40,0.001,0.0,0.0,0.0
15/09/2022,05:45:39,0.001,0.0,0.0,0.0
15/09/2022,05:46:39,0.001,0.0,0.0,0.0
15/09/2022,05:47:40,0.002,0.0,0.0,0.0
15/09/2022,05:48:39,0.003,0.0,0.0,0.0
15/09/2022,05:49:39,0.002,0.0,0.0,0.0
15/09/2022,05:50:40,0.001,0.0,0.0,0.0
15/09/2022,05:51:40,0.002,0.0,0.0,0.0
15/09/2022,05:52:40,0.002,0.0,0.0,0.0
15/09/2022,05:53:39,0.003,0.0,0.0,0.0
15/09/2022,05:54:39,0.003,0.0,0.0,0.0
15/09/2022,05:55:48,0.003,0.0,0.0,0.0
15/09/2022,05:56:41,0.003,0.0,0.0,0.0
15/09/2022,05:57:40,0.003,0.0,0.0,0.0
15/09/2022,05:58:56,0.004,0.0,0.0,0.0
15/09/2022,06:00:40,0.004,0.0,0.0,0.0
15/09/2022,06:01:40,0.004,0.0,0.0,0.0
15/09/2022,06:02:39,0.004,0.0,0.0,0.0
15/09/2022,06:03:39,0.004,0.0,0.0,0.0
15/09/2022,06:04:40,0.005,0.0,0.0,0.0
15/09/2022,06:05:39,0.005,0.0,0.0,0.0
15/09/2022,06:06:39,0.004,0.0,0.0,0.0
15/09/2022,06:07:39,0.005,0.0,0.0,0.0
15/09/2022,06:08:39,0.004,0.0,0.0,0.0
15/09/2022,06:09:47,0.005,0.0,0.0,0.0
15/09/2022,06:10:40,0.005,0.0,0.0,0.0
15/09/2022,06:11:39,0.005,0.0,0.0,0.0
15/09/2022,06:12:39,0.006,0.0,0.0,0.0
15/09/2022,06:13:47,0.005,0.0,0.0,0.0
15/09/2022,06:14:40,0.005,0.0,0.0,0.0
15/09/2022,06:15:40,0.006,0.0,0.0,0.0
15/09/2022,06:16:47,0.007,0.0,0.0,0.0
15/09/2022,06:17:39,0.008,0.0,0.0,0.0
15/09/2022,06:18:39,0.007,0.0,0.0,0.0
15/09/2022,06:19:40,0.008,0.0,0.001,0.001
15/09/2022,06:20:39,0.009,0.0,0.001,0.0
15/09/2022,06:21:31,0.010,0.0,0.001,0.0
15/09/2022,06:22:40,0.011,0.0,0.001,0.0
15/09/2022,06:23:39,0.013,0.0,0.001,0.0
15/09/2022,06:24:39,0.015,0.0,0.001,0.0
15/09/2022,06:25:40,0.015,0.0,0.002,0.001
15/09/2022,06:26:39,0.015,0.0,0.002,0.0
15/09/2022,06:27:40,0.017,0.0,0.002,0.0
15/09/2022,06:28:48,0.019,0.0,0.003,0.001
15/09/2022,06:29:39,0.020,0.0,0.003,0.0
15/09/2022,06:30:40,0.021,0.0,0.003,0.0
15/09/2022,06:31:48,0.023,0.0,0.004,0.001
15/09/2022,06:32:39,0.024,0.0,0.004,0.0
15/09/2022,06:33:39,0.026,0.0,0.004,0.0
15/09/2022,06:34:40,0.028,0.0,0.005,0.001
15/09/2022,06:35:39,0.029,0.0,0.005,0.0
15/09/2022,06:36:40,0.030,0.0,0.006,0.001
15/09/2022,06:37:40,0.031,0.0,0.006,0.0
15/09/2022,06:38:48,0.032,0.0,0.007,0.001
15/09/2022,06:39:39,0.033,0.0,0.007,0.0
15/09/2022,06:40:47,0.033,0.0,0.008,0.001
15/09/2022,06:41:40,0.036,0.0,0.009,0.001
15/09/2022,06:42:39,0.038,0.0,0.009,0.0
15/09/2022,06:43:40,0.039,0.0,0.01,0.001
15/09/2022,06:44:39,0.042,0.0,0.01,0.0
15/09/2022,06:45:40,0.043,0.0,0.011,0.001
15/09/2022,06:46:39,0.046,0.0,0.012,0.001
15/09/2022,06:47:39,0.047,0.0,0.013,0.001
15/09/2022,06:48:40,0.051,0.0,0.014,0.001
15/09/2022,06:49:39,0.054,0.0,0.014,0.0
15/09/2022,06:50:39,0.055,0.0,0.015,0.001
15/09/2022,06:51:39,0.057,0.0,0.016,0.001
15/09/2022,06:52:39,0.059,0.0,0.017,0.001
15/09/2022,06:53:40,0.061,0.0,0.018,0.001
15/09/2022,06:54:39,0.062,0.0,0.019,0.001
15/09/2022,06:55:48,0.064,0.0,0.02,0.001
15/09/2022,06:56:39,0.065,0.0,0.021,0.001
15/09/2022,06:57:41,0.067,0.0,0.022,0.001
15/09/2022,06:59:00,0.066,0.0,0.024,0.002
15/09/2022,07:00:40,0.068,0.0,0.026,0.002
15/09/2022,07:01:39,0.068,0.0,0.027,0.001
15/09/2022,07:02:39,0.070,0.0,0.028,0.001
15/09/2022,07:03:39,0.070,0.0,0.029,0.001
15/09/2022,07:04:39,0.071,0.0,0.03,0.001
15/09/2022,07:05:47,0.072,0.0,0.032,0.002
15/09/2022,07:06:39,0.074,0.0,0.033,0.001
15/09/2022,07:07:40,0.076,0.0,0.034,0.001
15/09/2022,07:08:27,0.078,0.0,0.035,0.001
15/09/2022,07:09:40,0.081,0.0,0.037,0.002
15/09/2022,07:10:40,0.084,0.0,0.038,0.001
15/09/2022,07:11:39,0.086,0.0,0.04,0.002
15/09/2022,07:12:40,0.090,0.0,0.041,0.001
15/09/2022,07:13:39,0.092,0.0,0.043,0.002
15/09/2022,07:14:40,0.095,0.0,0.044,0.001
15/09/2022,07:15:39,0.099,0.0,0.046,0.002
15/09/2022,07:16:48,0.103,0.0,0.048,0.002
15/09/2022,07:17:40,0.105,0.0,0.049,0.001
15/09/2022,07:18:40,0.108,0.0,0.051,0.002
15/09/2022,07:19:47,0.112,0.0,0.053,0.002
15/09/2022,07:20:39,0.119,0.0,0.055,0.002
15/09/2022,07:21:39,0.123,0.0,0.057,0.002
15/09/2022,07:22:39,0.122,0.0,0.059,0.002
15/09/2022,07:23:40,0.125,0.0,0.061,0.002
15/09/2022,07:24:39,0.130,0.0,0.063,0.002
15/09/2022,07:25:40,0.132,0.0,0.065,0.002
15/09/2022,07:26:39,0.135,0.0,0.067,0.002
15/09/2022,07:27:40,0.141,0.0,0.07,0.003
15/09/2022,07:28:39,0.146,0.0,0.072,0.002
15/09/2022,07:29:39,0.147,0.0,0.075,0.003
15/09/2022,07:30:39,0.154,0.0,0.077,0.002
15/09/2022,07:31:40,0.154,0.0,0.08,0.003
15/09/2022,07:32:39,0.153,0.0,0.082,0.002
15/09/2022,07:33:39,0.155,0.0,0.085,0.003
15/09/2022,07:34:56,0.156,0.0,0.088,0.003
15/09/2022,07:36:40,0.171,0.0,0.093,0.005
15/09/2022,07:37:39,0.174,0.0,0.096,0.003
15/09/2022,07:38:40,0.178,0.0,0.098,0.002
15/09/2022,07:39:39,0.180,0.0,0.101,0.003
15/09/2022,07:40:48,0.181,0.0,0.105,0.004
15/09/2022,07:41:39,0.176,0.0,0.107,0.002
15/09/2022,07:42:39,0.171,0.0,0.11,0.003
15/09/2022,07:43:39,0.172,0.0,0.113,0.003
15/09/2022,07:44:55,0.169,0.0,0.117,0.004
15/09/2022,07:46:40,0.168,0.0,0.122,0.005
15/09/2022,07:47:40,0.169,0.0,0.125,0.003
15/09/2022,07:48:39,0.172,0.0,0.127,0.002
15/09/2022,07:49:40,0.174,0.0,0.13,0.003
15/09/2022,07:50:40,0.177,0.0,0.133,0.003
15/09/2022,07:51:40,0.181,0.0,0.136,0.003
15/09/2022,07:52:48,0.181,0.0,0.14,0.004
15/09/2022,07:53:39,0.181,0.0,0.142,0.002
15/09/2022,07:54:40,0.182,0.0,0.145,0.003
15/09/2022,07:55:48,0.185,0.0,0.149,0.004
15/09/2022,07:56:40,0.188,0.0,0.151,0.002
15/09/2022,07:57:40,0.192,0.0,0.155,0.004
15/09/2022,07:58:40,0.198,0.0,0.158,0.003
15/09/2022,07:59:39,0.206,0.0,0.161,0.003
15/09/2022,08:00:40,0.207,0.0,0.165,0.004
15/09/2022,08:01:39,0.211,0.0,0.168,0.003
15/09/2022,08:02:40,0.212,0.0,0.172,0.004
15/09/2022,08:03:39,0.213,0.0,0.175,0.003
15/09/2022,08:04:40,0.215,0.0,0.179,0.004
15/09/2022,08:05:40,0.217,1.0,0.182,0.003
15/09/2022,08:06:40,0.220,1.0,0.186,0.004
15/09/2022,08:07:40,0.226,1.0,0.19,0.004
15/09/2022,08:08:40,0.231,1.0,0.193,0.003
15/09/2022,08:09:40,0.237,1.0,0.197,0.004
15/09/2022,08:10:39,0.241,1.0,0.201,0.004
15/09/2022,08:11:39,0.246,1.0,0.205,0.004
15/09/2022,08:12:39,0.250,1.0,0.209,0.004
15/09/2022,08:13:47,0.255,1.0,0.214,0.005
15/09/2022,08:14:40,0.257,1.0,0.218,0.004
15/09/2022,08:15:56,0.260,1.0,0.223,0.005
15/09/2022,08:17:48,0.267,1.0,0.232,0.009
15/09/2022,08:18:40,0.268,1.0,0.235,0.003
15/09/2022,08:19:40,0.273,1.0,0.24,0.005
15/09/2022,08:20:39,0.277,1.0,0.245,0.005
15/09/2022,08:21:40,0.282,1.0,0.249,0.004
15/09/2022,08:22:40,0.287,1.0,0.254,0.005
15/09/2022,08:23:40,0.291,1.0,0.259,0.005
15/09/2022,08:24:40,0.293,1.0,0.264,0.005
15/09/2022,08:25:39,0.290,1.0,0.269,0.005
15/09/2022,08:26:39,0.286,1.0,0.273,0.004
15/09/2022,08:27:40,0.282,1.0,0.278,0.005
15/09/2022,08:28:48,0.279,1.0,0.283,0.005
15/09/2022,08:29:39,0.280,1.0,0.287,0.004
15/09/2022,08:30:39,0.278,1.0,0.292,0.005
15/09/2022,08:31:40,0.279,1.0,0.297,0.005
15/09/2022,08:32:40,0.280,1.0,0.301,0.004
15/09/2022,08:33:40,0.285,1.0,0.306,0.005
15/09/2022,08:34:39,0.290,1.0,0.311,0.005
15/09/2022,08:35:40,0.296,1.0,0.316,0.005
15/09/2022,08:36:40,0.301,1.0,0.321,0.005
15/09/2022,08:37:40,0.308,1.0,0.326,0.005
15/09/2022,08:38:40,0.314,1.0,0.331,0.005
15/09/2022,08:39:48,0.321,1.0,0.337,0.006
15/09/2022,08:40:40,0.327,1.0,0.342,0.005
15/09/2022,08:41:39,0.332,1.0,0.347,0.005
15/09/2022,08:42:39,0.336,1.0,0.353,0.006
15/09/2022,08:43:39,0.340,1.0,0.358,0.005
15/09/2022,08:44:40,0.347,1.0,0.364,0.006
15/09/2022,08:45:40,0.353,1.0,0.37,0.006
15/09/2022,08:47:05,0.362,1.0,0.378,0.008
15/09/2022,08:48:40,0.372,1.0,0.388,0.01
15/09/2022,08:49:48,0.376,1.0,0.395,0.007
15/09/2022,08:50:38,0.381,1.0,0.4,0.005
15/09/2022,08:51:39,0.385,1.0,0.407,0.007
15/09/2022,08:52:40,0.386,1.0,0.413,0.006
15/09/2022,08:53:40,0.386,1.0,0.42,0.007
15/09/2022,08:54:40,0.389,1.0,0.426,0.006
15/09/2022,08:55:40,0.389,1.0,0.433,0.007
15/09/2022,08:56:40,0.393,1.0,0.439,0.006
15/09/2022,08:57:39,0.397,1.0,0.446,0.007
15/09/2022,08:58:40,0.404,1.0,0.453,0.007
15/09/2022,08:59:40,0.408,1.0,0.459,0.006
15/09/2022,09:00:40,0.406,1.0,0.466,0.007
15/09/2022,09:01:40,0.409,1.0,0.473,0.007
15/09/2022,09:02:39,0.417,1.0,0.48,0.007
15/09/2022,09:03:39,0.426,1.0,0.487,0.007
15/09/2022,09:04:48,0.439,1.0,0.495,0.008
15/09/2022,09:05:39,0.449,1.0,0.501,0.006
15/09/2022,09:06:39,0.446,1.0,0.509,0.008
15/09/2022,09:07:40,0.444,1.0,0.516,0.007
15/09/2022,09:08:40,0.442,1.0,0.524,0.008
15/09/2022,09:09:40,0.448,1.0,0.531,0.007
15/09/2022,09:10:55,0.458,1.0,0.54,0.009
15/09/2022,09:12:40,0.474,1.0,0.554,0.014
15/09/2022,09:13:40,0.483,1.0,0.562,0.008
15/09/2022,09:14:40,0.519,1.0,0.57,0.008
15/09/2022,09:15:40,0.510,1.0,0.579,0.009
15/09/2022,09:16:40,0.519,1.0,0.588,0.009
15/09/2022,09:17:39,0.516,1.0,0.596,0.008
15/09/2022,09:18:39,0.523,1.0,0.605,0.009
15/09/2022,09:19:39,0.553,1.0,0.614,0.009
15/09/2022,09:20:40,0.558,1.0,0.623,0.009
15/09/2022,09:21:39,0.565,1.0,0.632,0.009
15/09/2022,09:22:48,0.577,1.0,0.643,0.011
15/09/2022,09:23:39,0.603,1.0,0.652,0.009
15/09/2022,09:24:39,0.610,1.0,0.662,0.01
15/09/2022,09:25:40,0.597,1.0,0.672,0.01
15/09/2022,09:26:39,0.588,1.0,0.682,0.01
15/09/2022,09:27:40,0.601,1.0,0.692,0.01
15/09/2022,09:28:39,0.581,1.0,0.702,0.01
15/09/2022,09:29:33,0.578,1.0,0.71,0.008
15/09/2022,09:30:41,0.607,1.0,0.721,0.011
15/09/2022,09:31:39,0.714,2.0,0.733,0.012
15/09/2022,09:32:40,0.624,1.0,0.743,0.01
15/09/2022,09:33:39,0.617,1.0,0.754,0.011
15/09/2022,09:34:48,0.615,1.0,0.765,0.011
15/09/2022,09:35:39,0.600,1.0,0.774,0.009
15/09/2022,09:36:40,0.587,1.0,0.784,0.01
15/09/2022,09:37:48,0.580,1.0,0.795,0.011
15/09/2022,09:38:40,0.588,1.0,0.804,0.009
15/09/2022,09:39:39,0.600,1.0,0.814,0.01
15/09/2022,09:40:48,0.613,1.0,0.825,0.011
15/09/2022,09:41:40,0.616,1.0,0.834,0.009
15/09/2022,09:42:40,0.621,1.0,0.844,0.01
15/09/2022,09:43:40,0.688,2.0,0.855,0.011
15/09/2022,09:44:40,0.630,1.0,0.865,0.01
15/09/2022,09:45:39,0.632,1.0,0.876,0.011
15/09/2022,09:46:39,0.638,1.0,0.887,0.011
15/09/2022,09:47:40,0.648,1.0,0.897,0.01
15/09/2022,09:48:40,0.656,2.0,0.908,0.011
15/09/2022,09:49:40,0.665,2.0,0.919,0.011
15/09/2022,09:50:40,0.677,2.0,0.93,0.011
15/09/2022,09:51:39,0.682,2.0,0.942,0.012
15/09/2022,09:52:40,0.689,2.0,0.953,0.011
15/09/2022,09:53:40,0.692,2.0,0.965,0.012
15/09/2022,09:54:40,0.686,2.0,0.976,0.011
15/09/2022,09:55:48,0.693,2.0,0.989,0.013
15/09/2022,09:56:40,0.700,2.0,0.999,0.01
15/09/2022,09:57:40,0.710,2.0,1.011,0.012
15/09/2022,09:58:39,0.721,2.0,1.023,0.012
15/09/2022,09:59:40,0.819,2.0,1.035,0.012
15/09/2022,10:00:40,0.742,2.0,1.048,0.013
15/09/2022,10:01:40,0.729,2.0,1.06,0.012
15/09/2022,10:02:39,0.735,2.0,1.072,0.012
15/09/2022,10:03:40,0.693,2.0,1.084,0.012
15/09/2022,10:04:40,0.670,2.0,1.096,0.012
15/09/2022,10:05:40,0.669,2.0,1.107,0.011
15/09/2022,10:06:40,0.714,2.0,1.118,0.011
15/09/2022,10:07:40,0.673,2.0,1.13,0.012
15/09/2022,10:08:40,0.658,2.0,1.141,0.011
15/09/2022,10:09:40,0.628,1.0,1.152,0.011
15/09/2022,10:10:40,0.658,2.0,1.163,0.011
15/09/2022,10:11:40,0.554,1.0,1.172,0.009
15/09/2022,10:12:40,0.537,1.0,1.181,0.009
15/09/2022,10:13:40,0.534,1.0,1.19,0.009